"Pseudo-MPEC" for A11BRHV

Created 2026 May 9 7:35:02 UT using Find_Orb

Click here for an explanation of pseudo-MPECs

 
 Astrometry: 
     A11BRHV*0C2026 05 02.31051708 23 44.726+24 36 03.96   ~530K 15.64oVNEOCPT05
     A11BRHV 0C2026 05 02.31142108 23 53.278+24 35 16.12   ~530K 15.52oVNEOCPT05
     A11BRHV 0C2026 05 02.33230308 27 10.524+24 16 45.62   ~530K 14.81oVNEOCPT05
     A11BRHV 0C2026 05 02.33501308 27 36.310+24 14 19.68   ~530K 14.99oVNEOCPT05

Station data:
(T05) ATLAS-HKO, Haleakala  (N20.707551 W156.257010)  US/Hawaii.  Observers
   L. Denneau, R. Siverd, J. Tonry, H. Weiland. Measurers L. Denneau, N.
   Erasmus, A. Fitzsimmons, J. Robinson, R. Siverd, J. Tonry, H. Weiland.
   0.5-m f/2.0 Schmidt + CCD.

Orbital elements:  A11BRHV
   Perihelion 2026 Mar 28.874533 +/- 16.1 TT = 20:59:19.6 (JD 2461128.374533)
Epoch 2026 May  2.0 TT = JDT 2461162.5   Earth MOID: 0.0011   Ju: 0.0171
M   0.159738989 +/- 41              Ve: 0.0496   Ma: 0.0548   Sa: 0.0437
n   0.004680932 +/-                 Peri.  120.266633 +/- 39     AutoNEOCP
a  35.39276507 +/-                  Node    41.510371 +/- 1.2
e   0.97837655 +/- 0.228            Incl.    5.629396 +/- 5.4
P 210.55800                H 20.96  G  0.15   U 11.3  SR
q 0.765313423 +/- 0.276    Q 70.02021672 +/- 16.3         (J2000 ecliptic)
From 4 observations 2026 May 2 (35.3 min); mean residual 0".30
Residuals in arcseconds: 
260502 T05  .41-  .28+    260502 T05  .13-  .32-    
260502 T05  .44+  .25-    260502 T05  .10+  .30+    

Ephemerides (geocentric):
Date (UTC) HH   RA             Dec           delta  r     elong  mag " sig PA
---- --------  ------------   ------------  ------ ------ -----  --- --------
2026 05 09 08  14 53 18.679   -25 59 49.98  .08213 1.0906 171.0 16.3  23d  63
2026 05 09 09  14 53 35.040   -26 01 06.68  .08265 1.0912 171.0 16.3  23d  63
2026 05 09 10  14 53 51.204   -26 02 22.27  .08317 1.0917 171.0 16.3  23d  63
2026 05 09 11  14 54 07.173   -26 03 36.77  .08369 1.0922 171.0 16.3  23d  63
2026 05 09 12  14 54 22.951   -26 04 50.21  .08421 1.0927 171.0 16.4  23d  63
2026 05 09 13  14 54 38.541   -26 06 02.59  .08473 1.0933 171.0 16.4  23d  63
2026 05 09 14  14 54 53.946   -26 07 13.95  .08525 1.0938 171.0 16.4  23d  63
2026 05 09 15  14 55 09.170   -26 08 24.30  .08577 1.0943 171.0 16.4  23d  63
2026 05 09 16  14 55 24.215   -26 09 33.66  .08629 1.0948 170.9 16.4  23d  63
2026 05 09 17  14 55 39.086   -26 10 42.06  .08681 1.0954 170.9 16.4  23d  63
2026 05 09 18  14 55 53.784   -26 11 49.50  .08733 1.0959 170.9 16.4  23d  63
2026 05 09 19  14 56 08.313   -26 12 56.01  .08785 1.0964 170.9 16.5  23d  63
2026 05 09 20  14 56 22.675   -26 14 01.61  .08837 1.0969 170.9 16.5  23d  63
2026 05 09 21  14 56 36.874   -26 15 06.30  .08889 1.0975 170.9 16.5  23d  63
2026 05 09 22  14 56 50.911   -26 16 10.12  .08941 1.0980 170.9 16.5  23d  63
2026 05 09 23  14 57 04.791   -26 17 13.07  .08993 1.0985 170.9 16.5  23d  63
2026 05 10 00  14 57 18.514   -26 18 15.17  .09045 1.0990 170.9 16.5  23d  63
2026 05 10 01  14 57 32.085   -26 19 16.43  .09098 1.0996 170.9 16.5  23d  63
2026 05 10 02  14 57 45.505   -26 20 16.88  .09150 1.1001 170.9 16.6  23d  63
2026 05 10 03  14 57 58.777   -26 21 16.53  .09202 1.1006 170.9 16.6  23d  63
2026 05 10 04  14 58 11.903   -26 22 15.38  .09254 1.1011 170.9 16.6  23d  63
2026 05 10 05  14 58 24.885   -26 23 13.46  .09306 1.1017 170.9 16.6  23d  63
2026 05 10 06  14 58 37.727   -26 24 10.78  .09359 1.1022 170.9 16.6  23d  63
2026 05 10 07  14 58 50.429   -26 25 07.35  .09411 1.1027 170.9 16.6  23d  63
2026 05 10 08  14 59 02.995   -26 26 03.18  .09463 1.1032 170.9 16.6  23d  63
2026 05 10 09  14 59 15.426   -26 26 58.29  .09516 1.1038 170.9 16.6  23d  63
2026 05 10 10  14 59 27.725   -26 27 52.69  .09568 1.1043 170.9 16.7  23d  63
2026 05 10 11  14 59 39.893   -26 28 46.40  .09620 1.1048 170.9 16.7  23d  63
2026 05 10 12  14 59 51.933   -26 29 39.42  .09673 1.1053 170.9 16.7  23d  63
2026 05 10 13  15 00 03.847   -26 30 31.76  .09725 1.1059 170.9 16.7  23d  63
2026 05 10 14  15 00 15.636   -26 31 23.44  .09777 1.1064 170.9 16.7  23d  63
2026 05 10 15  15 00 27.303   -26 32 14.47  .09830 1.1069 170.9 16.7  23d  63
2026 05 10 16  15 00 38.849   -26 33 04.86  .09882 1.1075 170.9 16.7  23d  63
2026 05 10 17  15 00 50.277   -26 33 54.62  .09935 1.1080 170.9 16.7  23d  63
2026 05 10 18  15 01 01.587   -26 34 43.76  .09987 1.1085 170.9 16.8  23d  63
2026 05 10 19  15 01 12.782   -26 35 32.29  .10039 1.1090 170.9 16.8  23d  63
2026 05 10 20  15 01 23.863   -26 36 20.22  .10092 1.1096 170.9 16.8  23d  63
2026 05 10 21  15 01 34.833   -26 37 07.56  .10144 1.1101 170.9 16.8  23d  63
2026 05 10 22  15 01 45.692   -26 37 54.33  .10197 1.1106 170.9 16.8  23d  63
2026 05 10 23  15 01 56.443   -26 38 40.52  .10249 1.1112 170.9 16.8  23d  63
2026 05 11 00  15 02 07.087   -26 39 26.15  .10302 1.1117 170.9 16.8  23d  63
2026 05 11 01  15 02 17.625   -26 40 11.22  .10354 1.1122 170.9 16.8  23d  63
2026 05 11 02  15 02 28.059   -26 40 55.76  .10407 1.1127 170.9 16.9  23d  63
2026 05 11 03  15 02 38.391   -26 41 39.76  .10459 1.1133 170.9 16.9  23d  63
2026 05 11 04  15 02 48.622   -26 42 23.23  .10512 1.1138 170.9 16.9  23d  63
2026 05 11 05  15 02 58.754   -26 43 06.18  .10565 1.1143 170.9 16.9  23d  63
2026 05 11 06  15 03 08.788   -26 43 48.63  .10617 1.1149 170.9 16.9  23d  63
2026 05 11 07  15 03 18.725   -26 44 30.57  .10670 1.1154 170.9 16.9  23d  63